Regional Weather Roundup
Issued by NWS

Home | Current Version | Previous Version | Graphics & Text | Print | Product List | Glossary On
Versions: 1 2 3 4 5 6 7 8 9 10 11 12 13 14 15 16 17 18 19 20 21 22 23 24 25 26 27 28 29 30 31 32 33 34 35 36 37 38 39 40 41 42 43 44 45 46 47 48 49 50
000
ASUS44 KMEG 300610
RWRTN
TENNESSEE HOURLY STATE WEATHER ROUNDUP
NATIONAL WEATHER SERVICE MEMPHIS TN
100 AM CDT SAT MAY 30 2015

TNZ002-004-019-021-049-052-054-088>092-300700-
WEST TENNESSEE

CITY           SKY/WX    TMP DP  RH WIND       PRES   REMARKS
MEMPHIS INTL   MOCLDY    75  68  78 S13       30.00S
NWS MEMPHIS      N/A     74 N/A N/A MISG        N/A
JACKSON        MOCLDY    75  67  76 S9        30.02F
DYERSBURG      MOCLDY    75  57  53 S6        30.01S
PARIS          CLEAR     70  66  88 S9        30.04S
LEXINGTON      CLEAR     72  66  83 SE3       30.05S
$$

TNZ008-025-027-028-033-062-065-066-300700-
NORTH MIDDLE TENNESSEE

CITY           SKY/WX    TMP DP  RH WIND       PRES   REMARKS
NASHVILLE      CLOUDY    72  66  81 S7        30.08F
CLARKSVILLE    CLEAR     71  66  84 S6        30.05F
SMYRNA         PTCLDY    72  66  81 SE7       30.09F
COOKEVILLE     CLEAR     64  64 100 CALM      30.12F
CROSSVILLE     PTCLDY    66  63  90 CALM      30.18F
$$

TNZ061-075-076-078-094-096-097-300700-
SOUTH MIDDLE TENNESSEE

CITY           SKY/WX    TMP DP  RH WIND       PRES   REMARKS
FAYETTEVILLE   CLEAR    N/A N/A N/A MISG      30.11F
TULLAHOMA      CLEAR     66  63  88 CALM      30.13F
WINCHESTER     PTCLDY    68  66  94 SE3       30.13F
MCMINNVILLE    CLEAR     66  66 100 CALM      30.12F
COLUMBIA       CLEAR     70  66  88 CALM      30.07F
SHELBYVILLE    CLEAR     72  66  83 SE5       30.11F
$$

TNZ017-018-042-046-047-300700-
NORTHEAST TENNESSEE

CITY           SKY/WX    TMP DP  RH WIND       PRES   REMARKS
TRI CITIES     PTCLDY    63  62  97 CALM      30.19S
ELIZABETHTON   CLEAR     61  61 100 VRB3      30.20S
$$

TNZ012-013-036-069-073-074-300700-
CENTRAL EAST TENNESSEE

CITY           SKY/WX    TMP DP  RH WIND       PRES   REMARKS
KNOXVILLE      PTCLDY    67  65  93 CALM      30.14F
OAK RIDGE      CLOUDY    71  65  81 CALM      30.16F
GATLINBURG     CLEAR     64  63  94 CALM      30.16S
MORRISTOWN     CLEAR     64  64 100 CALM      30.18S
$$

TNZ083-085-099-300700-
SOUTHEAST TENNESSEE

CITY           SKY/WX    TMP DP  RH WIND       PRES   REMARKS
CHATTANOOGA    MOCLDY    71  69  93 CALM      30.13F
$$

SKY/WX REPORTED AS FAIR MEANS FEW OR NO CLOUDS BELOW
12 THOUSAND FEET.




USA.gov is the U.S. government's official web portal to all federal, state and local government web resources and services.